Flag for Slovakia Weather past 2 weeks in Piešťany, Slovakia

Now
41 °F

Passing clouds.


Feels Like: 32 °F
Forecast: 33 / 47 °F
Wind: 21 mph from Northwest

Location: Piestany

Current Time: Mar 3, 2015 at 10:33:24 AM

Latest Report: Mar 3, 2015 at 10:00 AM


Visibility: N/A

Pressure: 30.15 "Hg

Humidity: 66%

Dew point: 30 °F

Location of PiešťanyLocation

Historic Weather in Piešťany — Graph

°F

Piešťany temperature yesterday

Maximum temperature yesterday: 48 °F (at 12:30 PM)
Minimum temperature yesterday: 34 °F (at 3:00 AM)
Average temperature yesterday: 41 °F

Past Weeks' High & Low Weather Summary

 TemperatureHumidityPressure
High52 °F (Feb 16, 2:00 PM)100% (Feb 20, 4:00 AM)30.74 "Hg (Feb 20, 4:00 AM)
Low19 °F (Feb 20, 6:30 AM)34% (Feb 16, 4:00 PM)29.62 "Hg (Feb 21, 5:00 PM)
Average39 °F79%30.04 "Hg
* Reported Feb 16 9:00 AM — Mar 3 9:30 AM, Piešťany, Weather by CustomWeather, © 2015

Note: Actual official high and low records may vary slightly from our data, if they occured in-between our weather recording intervals... More about our weather records

Advertising

Piešťany weather history for previous 24 hours

 ConditionsComfort  
Time TempWeatherWind HumidityBarometerVisibility
9:30 AM
Tue, Mar 3
39 °FSunny.21 mph70%30.12 "Hg10 mi
9:00 AM41 °FSunny.17 mph66%30.12 "Hg10 mi
8:30 AM37 °FPassing clouds.16 mph70%30.09 "HgN/A
8:00 AM37 °FPassing clouds.12 mph65%30.09 "HgN/A
7:30 AM37 °FPassing clouds.8 mph65%30.09 "HgN/A
7:00 AM37 °FPassing clouds.9 mph65%30.07 "HgN/A
6:30 AM37 °FSunny.12 mph65%30.07 "Hg10 mi
6:00 AM37 °FPassing clouds.9 mph70%30.07 "HgN/A
5:30 AM37 °FPassing clouds.12 mph70%30.04 "HgN/A
5:00 AM37 °FPassing clouds.16 mph70%30.01 "HgN/A
4:30 AM37 °FChilly.13 mph70%30.01 "HgN/A
4:00 AM39 °FPassing clouds.16 mph70%29.98 "HgN/A
3:30 AM39 °FPassing clouds.12 mph75%29.98 "HgN/A
3:00 AM39 °FLight rain. Mostly cloudy.15 mph81%29.98 "HgN/A
2:30 AM37 °FLight rain. Passing clouds.5 mph81%29.95 "HgN/A
2:00 AM36 °FMostly cloudy.3 mph87%29.95 "HgN/A
1:30 AM34 °FMostly cloudy.6 mph87%29.92 "HgN/A
1:00 AM37 °FPartly cloudy.3 mph81%29.92 "HgN/A
12:30 AM36 °FPassing clouds.5 mph81%29.92 "HgN/A
12:00 AM36 °FPassing clouds.5 mph81%29.89 "HgN/A
11:30 PM
Mon, Mar 2
36 °FChilly.3 mph81%29.89 "HgN/A
11:00 PM36 °FChilly.8 mph87%29.89 "HgN/A
10:30 PM36 °FChilly.3 mph87%29.89 "HgN/A
10:00 PM36 °FChilly.7 mph87%29.86 "HgN/A
9:30 PM37 °FChilly.9 mph81%29.86 "HgN/A
9:00 PM37 °FClear.9 mph81%29.83 "Hg10 mi
8:30 PM39 °FClear.14 mph75%29.83 "Hg10 mi
8:00 PM41 °FClear.14 mph70%29.80 "Hg10 mi
7:30 PM41 °FPassing clouds.14 mph76%29.80 "HgN/A
7:00 PM43 °FPassing clouds.13 mph76%29.77 "HgN/A
6:30 PM43 °FPassing clouds.10 mph76%29.77 "HgN/A
6:00 PM43 °FPassing clouds.7 mph81%29.74 "HgN/A
5:30 PM45 °FBroken clouds.7 mph76%29.74 "HgN/A
5:00 PM45 °FBroken clouds.10 mph76%29.74 "HgN/A
4:30 PM45 °FBroken clouds.8 mph76%29.71 "HgN/A
4:00 PM46 °FPartly sunny.6 mph71%29.68 "HgN/A
3:30 PM46 °FOvercast.10 mph76%29.68 "HgN/A
3:00 PM46 °FPartly sunny.7 mph76%29.68 "HgN/A
2:30 PM46 °FPartly sunny.9 mph76%29.71 "HgN/A
2:00 PM45 °FLight rain. More clouds than sun.10 mph76%29.71 "Hg5 mi
1:30 PM46 °FHeavy rain. More clouds than sun.14 mph87%29.68 "Hg1 mi
1:00 PM48 °FLight rain. More clouds than sun.8 mph76%29.62 "Hg4 mi
12:30 PM48 °FMore clouds than sun.10 mph76%29.65 "Hg4 mi
12:00 PM46 °FMore clouds than sun.7 mph82%29.65 "Hg4 mi
11:30 AM46 °FLight rain. More clouds than sun.8 mph82%29.65 "Hg3 mi
11:00 AM45 °FMore clouds than sun.12 mph81%29.65 "Hg4 mi
10:30 AM45 °FBroken clouds.8 mph81%29.68 "Hg4 mi
10:00 AM45 °FBroken clouds.9 mph81%29.68 "Hg4 mi
Weather by CustomWeather, © 2015

See weather overviewHow to use our weather pages